Regional Weather Roundup
Issued by NWS

Home | Current Version | Previous Version | Graphics & Text | Print | Product List | Glossary On
Versions: 1 2 3 4 5 6 7 8 9 10 11 12 13 14 15 16 17 18 19 20 21 22 23 24 25 26 27 28 29 30 31 32 33 34 35 36 37 38 39 40 41 42 43 44 45 46 47 48 49 50
000
ASUS43 KMPX 040110
RWRMN
WEATHER ROUNDUP FOR MINNESOTA
NATIONAL WEATHER SERVICE TWIN CITIES/CHANHASSEN MN
700 PM CST SAT DEC 03 2016


NOTE: "FAIR" INDICATES FEW OR NO CLOUDS BELOW 12,000 FEET WITH NO
SIGNIFICANT WEATHER AND/OR OBSTRUCTIONS TO VISIBILITY. N/A MEANS
CURRENT SKY AND/OR WEATHER CONDITIONS ARE NOT AVAILABLE.

MNZ060>063-068>070-040200-
   Twin Cities Metro

CITY           SKY/WX    TMP DP  RH WIND       PRES   REMARKS
TWIN CITIES    CLOUDY    31  23  72 SE9       30.20F WCI  23
ST PAUL        CLOUDY    31  24  75 SE9       30.22F WCI  23
CRYSTAL        CLOUDY    31  21  66 SE8       30.19F WCI  23
BLAINE         CLOUDY    34  25  69 SE8       30.19F WCI  27
LAKEVILLE      CLOUDY    30  27  86 SE6       30.19F WCI  24
EDEN PRAIRIE   CLOUDY    32  24  72 SE8       30.18F WCI  25
SOUTH ST PAUL  CLOUDY    32  24  71 SE5       30.21F WCI  27
LAKE ELMO      CLOUDY    32  25  74 SE6       30.22F WCI  26
$$
MNZ001>005-007-008-013>017-022>024-027-028-040200-
   Northwest Minnesota

CITY           SKY/WX    TMP DP  RH WIND       PRES   REMARKS
BEMIDJI        CLOUDY    24  19  83 SE12      30.07F WCI  12
HALLOCK        CLOUDY    28  25  86 SE15      30.00F WCI  17
ROSEAU         CLEAR     25  19  80 SE8       30.06F WCI  16
WARROAD        CLOUDY    25  21  86 SE10      30.07S WCI  15
THIEF RVR FALL CLOUDY    25  21  85 SE15      30.03  WCI  13
CROOKSTON      CLOUDY    28  25  86 SE17      30.01F WCI  16
FOSSTON        CLOUDY    25  19  80 SE9       30.04F WCI  15
DETROIT LAKES  CLOUDY    30  28  93 SE16G22   30.04F WCI  19
MOORHEAD       DRIZZLE   30  28  93 SE16G24   30.01F WCI  19
PARK RAPIDS    LGT SNOW  26  20  77 SE14      30.08F WCI  14
$$
MNZ006-009>011-018-025>026-040200-
   North Central Minnesota

CITY           SKY/WX    TMP DP  RH WIND       PRES   REMARKS
BAUDETTE       CLOUDY    25  18  74 S15       30.09  WCI  13
FLAG ISLAND    CLOUDY    27  23  86 S22       30.06F WCI  12
INTL FALLS     CLOUDY    27  19  72 VRB7      30.13S WCI  19
WASKISH        CLEAR     21  19  93 SE5       30.09F WCI  15
BIG FORK       CLOUDY    27  21  80 S8        30.12F WCI  18
LONGVILLE      MOCLDY    27  19  74 SE9G17    30.12F WCI  17
GRAND RAPIDS   CLOUDY    27  21  78 S17       30.15F WCI  14
CRANE LAKE     CLOUDY    27  19  74 S5        30.17S WCI  21
ORR            CLOUDY    27  18  69 S8        30.11F WCI  18
COOK           CLOUDY    27  19  74 S6        30.15F WCI  20
$$
MNZ012-019>021-037-040200-
   Northeast Minnesota

CITY           SKY/WX    TMP DP  RH WIND       PRES   REMARKS
DULUTH         CLOUDY    29  21  72 S7        30.17F WCI  22
ELY            MOCLDY    27  21  80 S5        30.16S WCI  21
HIBBING        CLOUDY    26  19  74 S9        30.15F WCI  17
EVELETH        CLOUDY    28  20  72 S8        30.17F WCI  20
DULUTH HARBOR  CLOUDY    32  23  69 CALM      30.22F
TWO HARBORS    CLOUDY    34  23  64 S8        30.17F WCI  27
SILVER BAY     CLOUDY    30  23  74 S7        30.18S WCI  23
GRAND MARAIS     N/A     34  27  75 SW3       30.21F
G MARAIS ARPRT CLOUDY    27  21  80 CALM      30.16F
$$
MNZ029>031-032-039>041-046>048-054>057-064-040200-
   West Central Minnesota

CITY           SKY/WX    TMP DP  RH WIND       PRES   REMARKS
FERGUS FALLS   FLURRIES  30  30 100 SE17      30.08F WCI  18
MORRIS         LGT SNOW  32  30  93 SE17      30.04F WCI  21
ALEXANDRIA     FLURRIES  30  28  92 SE12      30.08F WCI  20
ELBOW LAKE     LGT SNOW  31  30  96 E16       30.05F WCI  20
WADENA         LGT SNOW  27  25  93 SE8       30.08F WCI  18
GLENWOOD       LGT SNOW  30  28  93 SE14      30.09F WCI  20
APPLETON       CLOUDY    34  34 100 SE12      30.05F FOG     WCI  25
BENSON         LGT SNOW  34  30  86 S10       30.08F WCI  26
ORTONVILLE     CLOUDY    34  30  86 SE13      30.02F FOG     WCI  25
MADISON        CLOUDY    36  36 100 SE14      30.04F FOG
WILLMAR        LGT SNOW  34  32  93 SE13      30.12F WCI  25
$$
MNZ033>034-036-042>043-049>051-058-059-040200-
   Central Minnesota

CITY           SKY/WX    TMP DP  RH WIND       PRES   REMARKS
ST CLOUD       CLOUDY    30  24  78 SE13      30.15F WCI  20
PAYNESVILLE    CLOUDY    32  28  84 SE10      30.12F WCI  23
AITKIN         CLOUDY    30  21  69 SE7       30.14F WCI  23
PINE RIVER     CLOUDY    27  21  80 SE10      30.15F WCI  17
BRAINERD       CLOUDY    27  22  81 SE7       30.14F HAZE    WCI  19
STAPLES        CLOUDY    25  23  93 SE7       30.10F WCI  17
LONG PRAIRIE   FLURRIES  30  27  86 E10       30.11F WCI  21
LITTLE FALLS   CLOUDY    30  23  74 SE6       30.14F WCI  24
LITCHFIELD     MOCLDY    32  28  86 SE8       30.14F WCI  25
BUFFALO        CLOUDY    31  24  73 E7        30.18F WCI  25
MAPLE LAKE     CLOUDY    32  27  83 SE5       30.17F WCI  27
$$
MNZ037-044-045-052-053-040200-
   East Central Minnesota

CITY           SKY/WX    TMP DP  RH WIND       PRES   REMARKS
PRINCETON      CLOUDY    30  21  69 SE6       30.18F WCI  24
MORA           CLOUDY    30  21  69 S5        30.21S WCI  25
CAMBRIDGE      CLOUDY    30  21  69 SE7       30.17F WCI  23
RUSH CITY      CLOUDY    28  21  74 S7        30.21S WCI  21
MOOSE LAKE     CLOUDY    30  21  69 S5        30.17F WCI  25
HINCKLEY       CLOUDY    30  23  74 SE3       30.19F
CLOQUET        CLOUDY    28  18  64 S10       30.17F WCI  19
MCGREGOR       CLOUDY    30  23  74 S7        30.17F WCI  23
$$
MNZ071>073-080-081-089-090-097-098-040200-
   Southwest Minnesota

CITY           SKY/WX    TMP DP  RH WIND       PRES   REMARKS
MONTEVIDEO     LGT SNOW  34  34 100 S9        30.09F WCI  26
GRANITE FALLS  LGT SNOW  35  33  94 SE10      30.10F WCI  27
CANBY          CLOUDY    36  33  90 SE12      30.04F
MARSHALL       MOCLDY    34  30  86 S16       30.07F WCI  23
REDWOOD FALLS  LGT SNOW  33  30  88 SE13      30.11F FOG     WCI  24
OLIVIA         LGT SNOW  32  30  93 SE13      30.11F WCI  22
PIPESTONE      LGT SNOW  34  32  93 S15       30.03F WCI  24
WINDOM         CLOUDY    34  34 100 CALM      30.11F FOG
WORTHINGTON    LGT SNOW  32  31  96 S14       30.09F FOG     WCI  22
JACKSON        LGT SNOW  32  32 100 S10       30.12F WCI  24
TRACY          LGT SNOW  34  32  92 S10G17    30.08F WCI  26
SLAYTON        CLOUDY    32  31  96 S12       30.08F FOG     WCI  23
$$
MNZ065>067-074>077-082>085-091>093-040200-
   South Central Minnesota

CITY           SKY/WX    TMP DP  RH WIND       PRES   REMARKS
MANKATO        LGT SNOW  33  30  88 SE10      30.17F FOG     WCI  25
NEW ULM        LGT SNOW  34  32  93 SE8       30.14F WCI  27
ST JAMES       DRIZZLE   36  34  93 SE8       30.15F
FAIRMONT       LGT RAIN  33  32  96 S10       30.14F WCI  25
GLENCOE        CLOUDY    33  30  91 SE10      30.15F WCI  24
FARIBAULT      CLOUDY    32  27  80 SE8       30.19F WCI  25
OWATONNA       CLOUDY    32  27  80 SE7       30.18F WCI  26
WASECA         LGT SNOW  32  30  93 SE7       30.18F WCI  26
ALBERT LEA     LGT SNOW  36  36 100 S7        30.17F
$$
MNZ078>079-086>088-094>096-040200-
   Southeast Minnesota

CITY           SKY/WX    TMP DP  RH WIND       PRES   REMARKS
ROCHESTER      PTCLDY    30  25  81 SE8       30.19F WCI  22
RED WING       CLOUDY    32  21  64 SE3       30.22F
STANTON        CLOUDY    32  25  76 CALM      30.20S
DODGE CENTER   PTCLDY    30  27  86 SE7       30.18F WCI  23
WINONA         CLOUDY    32  27  80 CALM      30.24F
AUSTIN         CLOUDY    30  28  93 SE5       30.18F WCI  25
PRESTON        CLOUDY    30  23  74 SE3       30.20F
$$
ABBREVIATIONS USED IN REMARKS
   TC - TEMPERATURES IN CELSIUS
  WCI - WIND CHILL INDEX
   HX - HEAT INDEX
  VSB - VISIBILITY
$$




USA.gov is the U.S. government's official web portal to all federal, state and local government web resources and services.